Regional Weather Roundup
Issued by NWS

Home | Current Version | Previous Version | Text Only | Print | Product List | Glossary Off
Versions: 1 2 3 4 5 6 7 8 9 10 11 12 13 14 15 16 17 18 19 20 21 22 23 24 25 26 27 28 29 30 31 32 33 34 35 36 37 38 39 40 41 42 43 44 45 46 47 48 49 50

000
ASUS43 KDMX 281007
RWRIA

WEATHER ROUNDUP FOR IOWA
NATIONAL WEATHER SERVICE DES MOINES IA
400 AM CST FRI NOV 28 2014

NOTE: "FAIR" INDICATES FEW OR NO CLOUDS BELOW 12,000 FEET WITH NO
SIGNIFICANT WEATHER AND/OR OBSTRUCTIONS TO VISIBILITY.

* - THESE STATIONS ARE NOT NWS STATIONS...THUS NOT UNDER NWS
QUALITY CONTROL.  THEY ALSO DO NOT REPORT WEATHER SUCH
AS PRECIPITATION OR FOG.

IAZ001>003-012>014-020>022-031>034-043>046-281100-
   NORTHWEST IOWA

CITY           SKY/WX    TMP DP  RH WIND       PRES   REMARKS
CARROLL *      CLEAR     14  12  92 SE8       30.01F WCI   3
CHEROKEE *     PTCLDY    16  14  93 S6        29.96F WCI   7
DENISON *      CLEAR     27  21  80 S8        29.96F WCI  18
LE MARS *      CLEAR     25  21  86 S13       29.93F WCI  13
ORANGE CITY *  CLEAR     19  16  86 S7        29.90F WCI  10
SHELDON *      CLEAR     14  10  85 SE12      29.92F WCI   0
SIOUX CITY     PTCLDY    24  19  81 SE8       29.95F WCI  15
SPENCER        PTCLDY    14   9  80 SE13      29.96F WCI   0
STORM LAKE *   CLEAR     12  10  92 SE12      29.96F WCI  -2
$$

IAZ055>058-069>071-079>083-090>094-281100-
   SOUTHWEST IOWA

CITY           SKY/WX    TMP DP  RH WIND       PRES   REMARKS
ATLANTIC *     CLEAR     28  21  74 S17       29.97F WCI  16
AUDUBON *      CLEAR     27  19  74 SE3       29.99F
CLARINDA *     CLEAR     28  23  80 S9        30.06F WCI  20
COUNCIL BLFS * CLEAR     27  25  93 S14G21    29.95F WCI  15
CRESTON *      CLEAR     25  21  86 S18       30.02F WCI  11
HARLAN  *      CLEAR     27  23  86 S13       29.99F WCI  16
LAMONI         CLEAR     25  21  85 S9G18     30.07F WCI  15
RED OAK *      CLEAR     28  23  80 S15       30.01F WCI  17
SHENANDOAH *   CLEAR     28  23  80 S9        30.03F WCI  20
$$

IAZ047>049-059>061-072>074-084-281100-
   CENTRAL IOWA

CITY           SKY/WX    TMP DP  RH WIND       PRES   REMARKS
AMES           CLEAR     14   7  73 SE9       30.09F WCI   2
ANKENY *       PTCLDY    18  10  73 SE13      30.09F WCI   4
CHARITON *     CLEAR     23  18  80 SE17G23   30.07F WCI   9
DES MOINES     PTCLDY    20  14  77 SE9       30.09F WCI   9
GRINNELL*      PTCLDY    14   7  73 E12       30.14F WCI   0
KNOXVILLE *    CLEAR     19  12  73 SE10      30.10F WCI   8
MARSHALLTOWN   CLEAR     14   6  70 SE21      30.11F WCI  -4
PELLA *        CLEAR     18  12  79 SE8       30.15F WCI   7
PERRY *          N/A     16  14  93 E10       30.06F WCI   3
$$

IAZ004>006-015-016-023>025-035-036-281100-
   NORTH CENTRAL IOWA

CITY           SKY/WX    TMP DP  RH WIND       PRES   REMARKS
ALGONA *       CLOUDY    18  10  73 S20G25    30.00F WCI   1
CLARION *      CLOUDY    16  10  79 SE23      30.04F WCI  -2
ESTHERVILLE    MOCLDY    12   8  84 S16       29.97F WCI  -5
FORT DODGE *   CLOUDY    18  10  73 SE10G16   30.03F WCI   6
MASON CITY     MOCLDY    12   4  70 SE17      30.07F WCI  -5
FOREST CITY *  MOCLDY    14   9  79 SE17G23   30.03F WCI  -3
IOWA FALLS *     N/A     16   9  73 SE16      30.09F WCI   0
$$

IAZ007>011-017>019-026>030-037>042-050>054-066-281100-
   NORTHEAST IOWA

CITY           SKY/WX    TMP DP  RH WIND       PRES   REMARKS
CEDAR RAPIDS   PTCLDY    14   6  70 SE10      30.20F WCI   1
CHARLES CITY * CLOUDY    14   3  62 SE17G23   30.11F WCI  -3
CLINTON *      CLOUDY    16   9  73 SE10      30.30F WCI   3
DECORAH *      CLOUDY    12   9  85 SE10G18   30.16F WCI  -1
DUBUQUE        CLOUDY    13   8  81 SE10      30.23F WCI   0
MONTICELLO *   CLOUDY    16   9  73 SE13      30.22F WCI   2
OELWEIN *      CLOUDY    16   7  67 SE17      30.16F WCI   0
WATERLOO       PTCLDY    14   5  67 SE10      30.16F WCI   1
$$

IAZ064-065-067-068-078-281100-
   EAST CENTRAL IOWA

CITY           SKY/WX    TMP DP  RH WIND       PRES   REMARKS
DAVENPORT      CLOUDY    16   8  71 SE14      30.26F WCI   2
IOWA CITY      CLOUDY    15   6  67 SE10      30.25F WCI   2
MT. PLEASANT * PTCLDY    16   9  73 SE10      30.23F WCI   3
MUSCATINE *    CLOUDY    18   9  68 SE9       30.26F WCI   6
QUAD CITIES    CLOUDY    17  10  74 E9        30.28F WCI   6
$$

IAZ062-063-075>077-085>089-095>099-281100-
   SOUTHEAST IOWA

CITY           SKY/WX    TMP DP  RH WIND       PRES   REMARKS
BURLINGTON     PTCLDY    15   7  70 SE6       30.26F WCI   6
FAIRFIELD *    CLOUDY    16   9  73 SE14      30.19F WCI   1
FORT MADISON * CLEAR     18  10  73 SE8       30.25F WCI   7
KEOKUK *       CLEAR     19  14  79 SE9       30.24F WCI   9
OSKALOOSA *      N/A     16  12  86 SE14      30.17F WCI   1
CENTERVILLE *  CLEAR     21  18  86 SE14G21   30.13F WCI   8
OTTUMWA        MOCLDY    19  11  70 SE13      30.16F WCI   6
WASHINGTON *   CLOUDY    16  10  79 SE16      30.21F WCI   0
$$

ABBREVIATIONS USED IN REMARKS
   TC - TEMPERATURES IN CELSIUS
  WCI - WIND CHILL INDEX
   HX - HEAT INDEX
  VSB - VISIBILITY
$$



USA.gov is the U.S. government's official web portal to all federal, state and local government web resources and services.